| time (UTC) | temp C | wind direction | speed KPH | gust KPH | rain 1hr cm | rain 24hr cm | rain mn cm | humidity % | barometer mb |
| 20260906104645 | 23 | 35 | 1.6 | 3.2 | 0.00 | 0.00 | 0.00 | 92 | 1012.6 |
| 20260906104145 | 23 | 331 | 1.6 | 4.8 | 0.00 | 0.00 | 0.00 | 92 | 1012.6 |
| 20260906103645 | 23 | 46 | 1.6 | 4.8 | 0.00 | 0.00 | 0.00 | 92 | 1012.6 |
| 20260906103145 | 23 | 46 | 1.6 | 3.2 | 0.00 | 0.00 | 0.00 | 92 | 1012.5 |
| 20260906102645 | 23 | 18 | 1.6 | 4.8 | 0.00 | 0.00 | 0.00 | 92 | 1012.4 |
| 20260906102145 | 23 | 9 | 1.6 | 4.8 | 0.00 | 0.00 | 0.00 | 91 | 1012.3 |
| 20260906101645 | 23 | 328 | 3.2 | 6.4 | 0.00 | 0.00 | 0.00 | 91 | 1012.2 |
| 20260906101145 | 23 | 46 | 3.2 | 4.8 | 0.00 | 0.00 | 0.00 | 91 | 1012.2 |
| 20260906100645 | 23 | 23 | 3.2 | 4.8 | 0.00 | 0.00 | 0.00 | 91 | 1012.2 |
| 20260906100145 | 23 | 326 | 3.2 | 8.0 | 0.00 | 0.00 | 0.00 | 91 | 1012.2 |
| 20260906095645 | 23 | 56 | 3.2 | 6.4 | 0.00 | 0.00 | 0.00 | 91 | 1012.0 |
| 20260906095145 | 23 | 1 | 3.2 | 4.8 | 0.00 | 0.00 | 0.00 | 91 | 1012.0 |
| 20260906094645 | 23 | 350 | 3.2 | 4.8 | 0.00 | 0.00 | 0.00 | 91 | 1012.1 |
| 20260906094145 | 23 | 41 | 1.6 | 4.8 | 0.00 | 0.00 | 0.00 | 91 | 1012.0 |
| 20260906093645 | 23 | 28 | 1.6 | 6.4 | 0.00 | 0.00 | 0.00 | 90 | 1012.0 |
| 20260906093145 | 23 | 346 | 1.6 | 6.4 | 0.00 | 0.00 | 0.00 | 90 | 1012.0 |
| 20260906092645 | 23 | 51 | 3.2 | 4.8 | 0.00 | 0.00 | 0.00 | 90 | 1011.9 |
| 20260906092145 | 23 | 309 | 3.2 | 4.8 | 0.00 | 0.00 | 0.00 | 90 | 1011.9 |
| 20260906091645 | 23 | 8 | 1.6 | 8.0 | 0.00 | 0.00 | 0.00 | 90 | 1011.9 |
| 20260906091146 | 23 | 340 | 1.6 | 6.4 | 0.00 | 0.00 | 0.00 | 90 | 1011.7 |
| 20260906090645 | 23 | 23 | 3.2 | 6.4 | 0.00 | 0.00 | 0.00 | 90 | 1011.8 |
| 20260906090145 | 23 | 32 | 3.2 | 6.4 | 0.00 | 0.00 | 0.00 | 89 | 1011.8 |
| 20260906085645 | 23 | 18 | 3.2 | 6.4 | 0.00 | 0.00 | 0.00 | 89 | 1011.7 |
| 20260906085145 | 23 | 35 | 3.2 | 8.0 | 0.00 | 0.00 | 0.00 | 89 | 1011.7 |
| 20260906084645 | 23 | 1 | 3.2 | 4.8 | 0.00 | 0.00 | 0.00 | 89 | 1011.7 |
| 20260906084145 | 24 | 1 | 3.2 | 4.8 | 0.00 | 0.00 | 0.00 | 89 | 1011.7 |
| 20260906083645 | 24 | 344 | 3.2 | 6.4 | 0.00 | 0.00 | 0.00 | 88 | 1011.7 |
| 20260906083145 | 24 | 324 | 1.6 | 6.4 | 0.00 | 0.00 | 0.00 | 88 | 1011.7 |
| 20260906082645 | 24 | 229 | 3.2 | 4.8 | 0.00 | 0.00 | 0.00 | 88 | 1011.7 |
| 20260906082145 | 24 | 40 | 3.2 | 8.0 | 0.00 | 0.00 | 0.00 | 88 | 1011.7 |
| 20260906081645 | 24 | 46 | 3.2 | 6.4 | 0.00 | 0.00 | 0.00 | 88 | 1011.8 |
| 20260906081145 | 24 | 331 | 3.2 | 8.0 | 0.00 | 0.00 | 0.00 | 88 | 1011.7 |
| 20260906080645 | 24 | 20 | 1.6 | 4.8 | 0.00 | 0.00 | 0.00 | 88 | 1011.7 |
| 20260906080146 | 25 | 20 | 1.6 | 4.8 | 0.00 | 0.00 | 0.00 | 88 | 1011.7 |
| 20260906075646 | 25 | 89 | 3.2 | 6.4 | 0.00 | 0.00 | 0.00 | 88 | 1011.7 |
| 20260906075145 | 25 | 46 | 3.2 | 4.8 | 0.00 | 0.00 | 0.00 | 89 | 1011.6 |
| 20260906074646 | 25 | 53 | 1.6 | 4.8 | 0.00 | 0.00 | 0.00 | 89 | 1011.4 |
| 20260906074146 | 25 | 46 | 3.2 | 6.4 | 0.00 | 0.00 | 0.00 | 89 | 1011.5 |
| 20260906073646 | 25 | 53 | 3.2 | 4.8 | 0.00 | 0.00 | 0.00 | 88 | 1011.4 |
| 20260906073146 | 25 | 46 | 1.6 | 4.8 | 0.00 | 0.00 | 0.00 | 88 | 1011.4 |
| 20260906072646 | 25 | 56 | 1.6 | 6.4 | 0.00 | 0.00 | 0.00 | 88 | 1011.4 |
| 20260906072146 | 25 | 340 | 3.2 | 4.8 | 0.00 | 0.00 | 0.00 | 88 | 1011.5 |
| 20260906071646 | 25 | 35 | 3.2 | 4.8 | 0.00 | 0.00 | 0.00 | 88 | 1011.4 |
| 20260906071147 | 25 | 9 | 3.2 | 4.8 | 0.00 | 0.00 | 0.00 | 88 | 1011.5 |
| 20260906070646 | 25 | 23 | 3.2 | 4.8 | 0.00 | 0.00 | 0.00 | 87 | 1011.5 |
| 20260906070146 | 25 | 1 | 1.6 | 6.4 | 0.00 | 0.00 | 0.00 | 86 | 1011.5 |
| 20260906065646 | 25 | 32 | 1.6 | 6.4 | 0.00 | 0.00 | 0.00 | 86 | 1011.5 |
| 20260906065146 | 25 | 20 | 1.6 | 4.8 | 0.00 | 0.00 | 0.00 | 86 | 1011.6 |
| 20260906064646 | 25 | 28 | 1.6 | 4.8 | 0.00 | 0.00 | 0.00 | 86 | 1011.6 |
| 20260906064146 | 25 | 51 | 1.6 | 4.8 | 0.00 | 0.00 | 0.00 | 86 | 1011.7 |
| 20260906063646 | 25 | 46 | 1.6 | 3.2 | 0.00 | 0.00 | 0.00 | 85 | 1011.7 |
| 20260906063146 | 25 | 28 | 1.6 | 4.8 | 0.00 | 0.00 | 0.00 | 85 | 1011.7 |
| 20260906062646 | 25 | 46 | 1.6 | 4.8 | 0.00 | 0.00 | 0.00 | 85 | 1011.8 |
| 20260906062146 | 26 | 13 | 1.6 | 6.4 | 0.00 | 0.00 | 0.00 | 84 | 1011.8 |
| 20260906061646 | 26 | 89 | 1.6 | 4.8 | 0.00 | 0.00 | 0.00 | 84 | 1011.9 |
| 20260906061146 | 25 | 28 | 1.6 | 4.8 | 0.00 | 0.00 | 0.00 | 84 | 1011.9 |
| 20260906060646 | 25 | 41 | 1.6 | 8.0 | 0.00 | 0.00 | 0.00 | 84 | 1012.0 |
| 20260906060146 | 25 | 35 | 3.2 | 6.4 | 0.00 | 0.00 | 0.00 | 83 | 1012.1 |
| 20260906055646 | 26 | 338 | 1.6 | 8.0 | 0.00 | 0.00 | 0.00 | 83 | 1012.0 |
| 20260906055146 | 26 | 40 | 1.6 | 4.8 | 0.00 | 0.00 | 0.00 | 83 | 1012.0 |
| 20260906054646 | 26 | 344 | 1.6 | 3.2 | 0.00 | 0.00 | 0.00 | 83 | 1012.0 |
| 20260906054146 | 26 | 336 | 1.6 | 4.8 | 0.00 | 0.00 | 0.00 | 83 | 1012.0 |
| 20260906053646 | 26 | 15 | 1.6 | 4.8 | 0.00 | 0.00 | 0.00 | 83 | 1012.1 |
| 20260906053146 | 26 | 46 | 1.6 | 3.2 | 0.00 | 0.00 | 0.00 | 82 | 1012.1 |
| 20260906052646 | 26 | 46 | 1.6 | 3.2 | 0.00 | 0.00 | 0.00 | 82 | 1012.1 |
| 20260906052146 | 26 | 1 | 1.6 | 4.8 | 0.00 | 0.00 | 0.00 | 81 | 1012.2 |
| 20260906051646 | 26 | 28 | 1.6 | 4.8 | 0.00 | 0.00 | 0.00 | 81 | 1012.1 |
| 20260906051146 | 26 | 46 | 1.6 | 4.8 | 0.00 | 0.00 | 0.00 | 80 | 1012.0 |
| 20260906050646 | 26 | 28 | 1.6 | 4.8 | 0.00 | 0.00 | 0.00 | 80 | 1011.9 |
| 20260906050146 | 26 | 56 | 1.6 | 4.8 | 0.00 | 0.00 | 0.00 | 81 | 1011.9 |
| 20260906045646 | 26 | 1 | 1.6 | 3.2 | 0.00 | 0.00 | 0.00 | 82 | 1012.0 |
| 20260906045146 | 26 | 46 | 1.6 | 3.2 | 0.00 | 0.00 | 0.00 | 82 | 1012.0 |
| 20260906044646 | 25 | 63 | 1.6 | 3.2 | 0.00 | 0.00 | 0.00 | 82 | 1012.0 |
| 20260906044146 | 25 | 89 | 1.6 | 3.2 | 0.00 | 0.00 | 0.00 | 83 | 1012.0 |
| 20260906043646 | 25 | 28 | 0.0 | 3.2 | 0.00 | 0.00 | 0.00 | 84 | 1011.9 |
| 20260906043146 | 25 | 46 | 1.6 | 3.2 | 0.00 | 0.00 | 0.00 | 84 | 1011.9 |
| 20260906042646 | 25 | 89 | 3.2 | 8.0 | 0.00 | 0.00 | 0.00 | 85 | 1011.9 |
| 20260906042146 | 25 | 336 | 3.2 | 8.0 | 0.00 | 0.00 | 0.00 | 86 | 1011.8 |
| 20260906041646 | 25 | 1 | 4.8 | 8.0 | 0.00 | 0.00 | 0.00 | 86 | 1011.8 |
| 20260906041146 | 25 | 321 | 4.8 | 8.0 | 0.00 | 0.00 | 0.00 | 85 | 1011.6 |
| 20260906040646 | 25 | 8 | 3.2 | 6.4 | 0.00 | 0.00 | 0.00 | 84 | 1011.5 |
| 20260906040146 | 25 | 347 | 1.6 | 3.2 | 0.00 | 0.00 | 0.00 | 83 | 1011.5 |
| 20260906035646 | 26 | 347 | 1.6 | 3.2 | 0.00 | 0.00 | 0.00 | 82 | 1011.4 |
| 20260906035146 | 26 | 46 | 1.6 | 3.2 | 0.00 | 0.00 | 0.00 | 82 | 1011.3 |
| 20260906034646 | 26 | 46 | 1.6 | 3.2 | 0.00 | 0.00 | 0.00 | 82 | 1011.2 |
| 20260906034146 | 26 | 46 | 0.0 | 3.2 | 0.00 | 0.00 | 0.00 | 82 | 1011.1 |
| 20260906033646 | 26 | 46 | 1.6 | 3.2 | 0.00 | 0.00 | 0.00 | 82 | 1011.2 |
| 20260906033146 | 26 | 269 | 1.6 | 3.2 | 0.00 | 0.00 | 0.00 | 81 | 1011.2 |
| 20260906032646 | 26 | 148 | 1.6 | 3.2 | 0.00 | 0.00 | 0.00 | 82 | 1011.1 |
| 20260906032146 | 26 | 46 | 1.6 | 3.2 | 0.00 | 0.00 | 0.00 | 81 | 1011.2 |
| 20260906031646 | 26 | 46 | 1.6 | 1.6 | 0.00 | 0.00 | 0.00 | 81 | 1011.2 |
| 20260906031146 | 26 | 56 | 1.6 | 3.2 | 0.00 | 0.00 | 0.00 | 80 | 1011.2 |
| 20260906030646 | 26 | 269 | 0.0 | 3.2 | 0.00 | 0.00 | 0.00 | 79 | 1011.2 |
| 20260906030146 | 26 | 1 | 1.6 | 1.6 | 0.00 | 0.00 | 0.00 | 79 | 1011.1 |
| 20260906025646 | 27 | 1 | 1.6 | 3.2 | 0.00 | 0.00 | 0.00 | 78 | 1011.0 |
| 20260906025146 | 27 | 340 | 1.6 | 1.6 | 0.00 | 0.00 | 0.00 | 77 | 1010.9 |
| 20260906024646 | 27 | 1 | 1.6 | 1.6 | 0.00 | 0.00 | 0.00 | 77 | 1010.9 |
| 20260906024146 | 27 | 46 | 1.6 | 3.2 | 0.00 | 0.00 | 0.00 | 77 | 1010.9 |
| 20260906023646 | 27 | 76 | 1.6 | 3.2 | 0.00 | 0.00 | 0.00 | 77 | 1010.8 |
| 20260906023146 | 27 | 28 | 0.0 | 3.2 | 0.00 | 0.00 | 0.00 | 77 | 1010.8 |
| 20260906022646 | 27 | 46 | 0.0 | 3.2 | 0.00 | 0.00 | 0.00 | 76 | 1010.7 |
| 20260906022146 | 27 | 46 | 1.6 | 1.6 | 0.00 | 0.00 | 0.00 | 76 | 1010.9 |
| 20260906021646 | 27 | 89 | 1.6 | 3.2 | 0.00 | 0.00 | 0.00 | 76 | 1010.8 |
| 20260906021146 | 27 | 152 | 0.0 | 1.6 | 0.00 | 0.00 | 0.00 | 75 | 1010.6 |
| 20260906020646 | 27 | 331 | 0.0 | 3.2 | 0.00 | 0.00 | 0.00 | 75 | 1010.7 |
| 20260906020146 | 27 | 63 | 1.6 | 3.2 | 0.00 | 0.00 | 0.00 | 75 | 1010.7 |
| 20260906015646 | 27 | 46 | 0.0 | 3.2 | 0.00 | 0.00 | 0.00 | 74 | 1010.6 |
| 20260906015146 | 27 | 46 | 0.0 | 3.2 | 0.00 | 0.00 | 0.00 | 74 | 1010.6 |
| 20260906014646 | 27 | 1 | 0.0 | 3.2 | 0.00 | 0.00 | 0.00 | 73 | 1010.6 |
| 20260906014146 | 28 | 0 | 1.6 | 1.6 | 0.00 | 0.00 | 0.00 | 72 | 1010.4 |
| 20260906013646 | 28 | 314 | 1.6 | 3.2 | 0.00 | 0.00 | 0.00 | 72 | 1010.4 |
| 20260906013146 | 28 | 344 | 0.0 | 3.2 | 0.00 | 0.00 | 0.00 | 71 | 1010.3 |
| 20260906012646 | 28 | 1 | 1.6 | 1.6 | 0.00 | 0.00 | 0.00 | 70 | 1010.2 |
| 20260906012146 | 28 | 269 | 1.6 | 3.2 | 0.00 | 0.00 | 0.00 | 68 | 1010.2 |
| 20260906011647 | 28 | 223 | 1.6 | 4.8 | 0.00 | 0.00 | 0.00 | 67 | 1010.2 |
| 20260906011146 | 28 | 72 | 1.6 | 3.2 | 0.00 | 0.00 | 0.00 | 67 | 1010.1 |
| 20260906010646 | 29 | 223 | 1.6 | 3.2 | 0.00 | 0.00 | 0.00 | 67 | 1010.0 |
| 20260906010146 | 29 | 142 | 1.6 | 4.8 | 0.00 | 0.00 | 0.00 | 66 | 1010.0 |
| 20260906005646 | 29 | 63 | 1.6 | 3.2 | 0.00 | 0.00 | 0.00 | 65 | 1009.9 |
| 20260906005146 | 30 | 135 | 3.2 | 4.8 | 0.00 | 0.00 | 0.00 | 65 | 1010.0 |
| 20260906004646 | 30 | 89 | 3.2 | 4.8 | 0.00 | 0.00 | 0.00 | 64 | 1009.8 |
| 20260906004146 | 30 | 89 | 3.2 | 6.4 | 0.00 | 0.00 | 0.00 | 64 | 1009.9 |
| 20260906003646 | 30 | 89 | 1.6 | 4.8 | 0.00 | 0.00 | 0.00 | 66 | 1009.8 |
| 20260906003146 | 30 | 46 | 1.6 | 3.2 | 0.00 | 0.00 | 0.00 | 66 | 1009.8 |
| 20260906002646 | 30 | 1 | 0.0 | 3.2 | 0.00 | 0.00 | 0.00 | 67 | 1009.9 |
| 20260906002146 | 30 | 46 | 1.6 | 1.6 | 0.00 | 0.00 | 0.00 | 66 | 1009.9 |
| 20260906001646 | 30 | 89 | 1.6 | 3.2 | 0.00 | 0.00 | 0.00 | 65 | 1009.9 |
| 20260906001146 | 30 | 79 | 1.6 | 3.2 | 0.00 | 0.00 | 0.00 | 64 | 1010.0 |
| 20260906000646 | 31 | 117 | 3.2 | 4.8 | 0.00 | 0.00 | 0.00 | 64 | 1010.1 |
| 20260906000146 | 31 | 89 | 3.2 | 4.8 | 0.00 | 0.00 | 0.00 | 63 | 1010.0 |
| 20260905235646 | 31 | 60 | 3.2 | 6.4 | 0.00 | 0.00 | 0.00 | 61 | 1010.1 |
| 20260905235146 | 31 | 152 | 3.2 | 6.4 | 0.00 | 0.00 | 0.00 | 62 | 1010.1 |
| 20260905234646 | 31 | 89 | 3.2 | 6.4 | 0.00 | 0.00 | 0.00 | 62 | 1010.1 |
| 20260905234146 | 32 | 119 | 3.2 | 8.0 | 0.00 | 0.00 | 0.00 | 61 | 1010.1 |
| 20260905233646 | 32 | 79 | 4.8 | 6.4 | 0.00 | 0.00 | 0.00 | 60 | 1010.0 |
| 20260905233146 | 32 | 84 | 6.4 | 9.7 | 0.00 | 0.00 | 0.00 | 59 | 1010.0 |
| 20260905232646 | 32 | 86 | 4.8 | 11.3 | 0.00 | 0.00 | 0.00 | 57 | 1009.9 |
| 20260905232146 | 32 | 95 | 4.8 | 14.5 | 0.00 | 0.00 | 0.00 | 55 | 1010.0 |
| 20260905231646 | 33 | 63 | 4.8 | 9.7 | 0.00 | 0.00 | 0.00 | 55 | 1010.0 |
| 20260905231146 | 33 | 83 | 4.8 | 11.3 | 0.00 | 0.00 | 0.00 | 55 | 1009.9 |
| 20260905230646 | 34 | 98 | 3.2 | 14.5 | 0.00 | 0.00 | 0.00 | 53 | 1009.9 |
| 20260905230146 | 35 | 68 | 3.2 | 4.8 | 0.00 | 0.00 | 0.00 | 49 | 1009.7 |
| 20260905225646 | 36 | 28 | 1.6 | 6.4 | 0.00 | 0.00 | 0.00 | 49 | 1009.6 |
| 20260905225146 | 36 | 63 | 3.2 | 6.4 | 0.00 | 0.00 | 0.00 | 48 | 1009.5 |
| 20260905224646 | 36 | 15 | 3.2 | 6.4 | 0.00 | 0.00 | 0.00 | 47 | 1009.5 |
| 20260905224146 | 36 | 13 | 3.2 | 9.7 | 0.00 | 0.00 | 0.00 | 47 | 1009.5 |
| 20260905223646 | 36 | 276 | 3.2 | 6.4 | 0.00 | 0.00 | 0.00 | 46 | 1009.3 |
| 20260905223146 | 35 | 35 | 3.2 | 6.4 | 0.00 | 0.00 | 0.00 | 48 | 1009.3 |
| 20260905222646 | 35 | 84 | 3.2 | 8.0 | 0.00 | 0.00 | 0.00 | 49 | 1009.3 |
| 20260905222146 | 35 | 241 | 4.8 | 9.7 | 0.00 | 0.00 | 0.00 | 49 | 1009.3 |
| 20260905221646 | 37 | 105 | 8.0 | 14.5 | 0.00 | 0.00 | 0.00 | 44 | 1009.4 |
| 20260905221147 | 37 | 40 | 8.0 | 16.1 | 0.00 | 0.00 | 0.00 | 40 | 1009.4 |
| 20260905220646 | 37 | 316 | 8.0 | 17.7 | 0.00 | 0.00 | 0.00 | 41 | 1009.5 |
| 20260905220146 | 37 | 16 | 8.0 | 12.9 | 0.00 | 0.00 | 0.00 | 40 | 1009.4 |
| 20260905215646 | 37 | 346 | 9.7 | 19.3 | 0.00 | 0.00 | 0.00 | 40 | 1009.3 |
| 20260905215146 | 37 | 334 | 9.7 | 17.7 | 0.00 | 0.00 | 0.00 | 40 | 1009.2 |
| 20260905214646 | 37 | 1 | 8.0 | 16.1 | 0.00 | 0.00 | 0.00 | 40 | 1009.2 |
| 20260905214147 | 37 | 1 | 6.4 | 14.5 | 0.00 | 0.00 | 0.00 | 41 | 1009.3 |
| 20260905213647 | 37 | 293 | 6.4 | 16.1 | 0.00 | 0.00 | 0.00 | 42 | 1009.4 |
| 20260905213147 | 37 | 318 | 6.4 | 14.5 | 0.00 | 0.00 | 0.00 | 41 | 1009.5 |
| 20260905212647 | 37 | 314 | 8.0 | 14.5 | 0.00 | 0.00 | 0.00 | 41 | 1009.5 |
| 20260905212147 | 37 | 271 | 8.0 | 17.7 | 0.00 | 0.00 | 0.00 | 40 | 1009.5 |
| 20260905211647 | 37 | 318 | 6.4 | 12.9 | 0.00 | 0.00 | 0.00 | 40 | 1009.5 |
| 20260905211147 | 37 | 337 | 6.4 | 14.5 | 0.00 | 0.00 | 0.00 | 41 | 1009.5 |
| 20260905210647 | 37 | 310 | 8.0 | 16.1 | 0.00 | 0.00 | 0.00 | 39 | 1009.6 |
| 20260905210147 | 37 | 23 | 8.0 | 16.1 | 0.00 | 0.00 | 0.00 | 39 | 1009.7 |
| 20260905205647 | 38 | 72 | 8.0 | 19.3 | 0.00 | 0.00 | 0.00 | 40 | 1009.8 |
| 20260905205147 | 38 | 323 | 9.7 | 16.1 | 0.00 | 0.00 | 0.00 | 40 | 1009.6 |
| 20260905204647 | 38 | 348 | 9.7 | 20.9 | 0.00 | 0.00 | 0.00 | 40 | 1009.8 |
| 20260905204147 | 38 | 11 | 8.0 | 19.3 | 0.00 | 0.00 | 0.00 | 41 | 1009.7 |
| 20260905203647 | 38 | 342 | 6.4 | 12.9 | 0.00 | 0.00 | 0.00 | 41 | 1009.7 |
| 20260905203147 | 38 | 324 | 4.8 | 12.9 | 0.00 | 0.00 | 0.00 | 42 | 1009.8 |
| 20260905202647 | 38 | 303 | 4.8 | 11.3 | 0.00 | 0.00 | 0.00 | 41 | 1009.8 |
| 20260905202147 | 38 | 346 | 4.8 | 9.7 | 0.00 | 0.00 | 0.00 | 41 | 1009.9 |
| 20260905201647 | 38 | 317 | 4.8 | 12.9 | 0.00 | 0.00 | 0.00 | 41 | 1010.0 |
| 20260905201147 | 37 | 62 | 4.8 | 9.7 | 0.00 | 0.00 | 0.00 | 41 | 1010.0 |
| 20260905200647 | 37 | 296 | 4.8 | 9.7 | 0.00 | 0.00 | 0.00 | 44 | 1010.2 |
| 20260905200147 | 37 | 13 | 4.8 | 14.5 | 0.00 | 0.00 | 0.00 | 43 | 1010.2 |
| 20260905195647 | 37 | 317 | 6.4 | 12.9 | 0.00 | 0.00 | 0.00 | 41 | 1010.2 |
| 20260905195147 | 37 | 15 | 4.8 | 9.7 | 0.00 | 0.00 | 0.00 | 44 | 1010.2 |
| 20260905194647 | 37 | 331 | 4.8 | 12.9 | 0.00 | 0.00 | 0.00 | 41 | 1010.2 |
| 20260905194147 | 37 | 353 | 3.2 | 11.3 | 0.00 | 0.00 | 0.00 | 43 | 1010.3 |
| 20260905193647 | 37 | 340 | 4.8 | 6.4 | 0.00 | 0.00 | 0.00 | 43 | 1010.4 |
| 20260905193147 | 37 | 279 | 4.8 | 11.3 | 0.00 | 0.00 | 0.00 | 43 | 1010.5 |
| 20260905192647 | 37 | 301 | 4.8 | 9.7 | 0.00 | 0.00 | 0.00 | 43 | 1010.6 |
| 20260905192147 | 37 | 1 | 4.8 | 8.0 | 0.00 | 0.00 | 0.00 | 46 | 1010.6 |
| 20260905191647 | 37 | 53 | 4.8 | 9.7 | 0.00 | 0.00 | 0.00 | 45 | 1010.6 |
| 20260905191147 | 37 | 1 | 3.2 | 6.4 | 0.00 | 0.00 | 0.00 | 45 | 1010.6 |
| 20260905190647 | 38 | 68 | 4.8 | 11.3 | 0.00 | 0.00 | 0.00 | 44 | 1010.6 |
| 20260905190147 | 38 | 347 | 4.8 | 12.9 | 0.00 | 0.00 | 0.00 | 41 | 1010.7 |
| 20260905185647 | 37 | 300 | 4.8 | 9.7 | 0.00 | 0.00 | 0.00 | 42 | 1010.9 |
| 20260905185147 | 36 | 241 | 4.8 | 9.7 | 0.00 | 0.00 | 0.00 | 44 | 1011.0 |
| 20260905184647 | 36 | 13 | 6.4 | 9.7 | 0.00 | 0.00 | 0.00 | 44 | 1011.1 |
| 20260905184147 | 36 | 121 | 6.4 | 14.5 | 0.00 | 0.00 | 0.00 | 43 | 1011.2 |
| 20260905183647 | 37 | 341 | 4.8 | 12.9 | 0.00 | 0.00 | 0.00 | 43 | 1011.3 |
| 20260905183147 | 37 | 56 | 4.8 | 9.7 | 0.00 | 0.00 | 0.00 | 45 | 1011.2 |
| 20260905182647 | 37 | 305 | 4.8 | 11.3 | 0.00 | 0.00 | 0.00 | 45 | 1011.2 |
| 20260905182147 | 37 | 1 | 6.4 | 11.3 | 0.00 | 0.00 | 0.00 | 44 | 1011.3 |
| 20260905181647 | 37 | 58 | 8.0 | 19.3 | 0.00 | 0.00 | 0.00 | 46 | 1011.5 |
| 20260905181147 | 37 | 46 | 8.0 | 16.1 | 0.00 | 0.00 | 0.00 | 45 | 1011.4 |
| 20260905180647 | 37 | 329 | 6.4 | 14.5 | 0.00 | 0.00 | 0.00 | 44 | 1011.5 |
| 20260905180147 | 37 | 269 | 4.8 | 14.5 | 0.00 | 0.00 | 0.00 | 44 | 1011.5 |
| 20260905175647 | 37 | 20 | 4.8 | 8.0 | 0.00 | 0.00 | 0.00 | 46 | 1011.5 |
| 20260905175147 | 37 | 324 | 6.4 | 14.5 | 0.00 | 0.00 | 0.00 | 45 | 1011.5 |
| 20260905174647 | 37 | 336 | 6.4 | 12.9 | 0.00 | 0.00 | 0.00 | 45 | 1011.5 |
| 20260905174147 | 36 | 347 | 6.4 | 19.3 | 0.00 | 0.00 | 0.00 | 45 | 1011.7 |
| 20260905173647 | 36 | 321 | 8.0 | 19.3 | 0.00 | 0.00 | 0.00 | 48 | 1011.7 |
| 20260905173147 | 36 | 203 | 6.4 | 16.1 | 0.00 | 0.00 | 0.00 | 47 | 1011.8 |
| 20260905172647 | 36 | 319 | 4.8 | 14.5 | 0.00 | 0.00 | 0.00 | 48 | 1011.9 |
| 20260905172147 | 36 | 53 | 4.8 | 12.9 | 0.00 | 0.00 | 0.00 | 48 | 1011.9 |
| 20260905171647 | 36 | 56 | 6.4 | 12.9 | 0.00 | 0.00 | 0.00 | 51 | 1012.0 |
| 20260905171147 | 36 | 354 | 4.8 | 16.1 | 0.00 | 0.00 | 0.00 | 47 | 1012.1 |
| 20260905170647 | 36 | 341 | 3.2 | 14.5 | 0.00 | 0.00 | 0.00 | 52 | 1012.2 |
| 20260905170147 | 36 | 283 | 4.8 | 12.9 | 0.00 | 0.00 | 0.00 | 50 | 1012.2 |
| 20260905165647 | 36 | 65 | 4.8 | 12.9 | 0.00 | 0.00 | 0.00 | 50 | 1012.3 |
| 20260905165147 | 36 | 269 | 4.8 | 6.4 | 0.00 | 0.00 | 0.00 | 51 | 1012.3 |
| 20260905164647 | 36 | 342 | 4.8 | 8.0 | 0.00 | 0.00 | 0.00 | 49 | 1012.4 |
| 20260905164147 | 36 | 343 | 4.8 | 11.3 | 0.00 | 0.00 | 0.00 | 51 | 1012.4 |
| 20260905163647 | 35 | 324 | 4.8 | 14.5 | 0.00 | 0.00 | 0.00 | 52 | 1012.4 |
| 20260905163147 | 35 | 15 | 4.8 | 8.0 | 0.00 | 0.00 | 0.00 | 52 | 1012.4 |
| 20260905162647 | 35 | 163 | 4.8 | 11.3 | 0.00 | 0.00 | 0.00 | 52 | 1012.5 |
| 20260905162147 | 35 | 351 | 3.2 | 9.7 | 0.00 | 0.00 | 0.00 | 54 | 1012.7 |
| 20260905161647 | 35 | 56 | 4.8 | 8.0 | 0.00 | 0.00 | 0.00 | 53 | 1012.8 |
| 20260905161147 | 35 | 319 | 4.8 | 12.9 | 0.00 | 0.00 | 0.00 | 54 | 1012.9 |
| 20260905160647 | 35 | 343 | 3.2 | 14.5 | 0.00 | 0.00 | 0.00 | 54 | 1013.0 |
| 20260905160147 | 35 | 334 | 4.8 | 9.7 | 0.00 | 0.00 | 0.00 | 53 | 1013.1 |
| 20260905155647 | 35 | 316 | 6.4 | 16.1 | 0.00 | 0.00 | 0.00 | 54 | 1013.2 |
| 20260905155147 | 35 | 353 | 4.8 | 9.7 | 0.00 | 0.00 | 0.00 | 54 | 1013.0 |
| 20260905154647 | 35 | 318 | 4.8 | 8.0 | 0.00 | 0.00 | 0.00 | 54 | 1013.1 |
| 20260905154147 | 35 | 1 | 4.8 | 12.9 | 0.00 | 0.00 | 0.00 | 54 | 1013.2 |
| 20260905153647 | 35 | 323 | 3.2 | 12.9 | 0.00 | 0.00 | 0.00 | 53 | 1013.2 |
| 20260905153147 | 34 | 331 | 4.8 | 9.7 | 0.00 | 0.00 | 0.00 | 55 | 1013.1 |
| 20260905152647 | 34 | 295 | 3.2 | 9.7 | 0.00 | 0.00 | 0.00 | 56 | 1013.0 |
| 20260905152147 | 33 | 324 | 4.8 | 11.3 | 0.00 | 0.00 | 0.00 | 55 | 1012.9 |
| 20260905151647 | 33 | 329 | 4.8 | 9.7 | 0.00 | 0.00 | 0.00 | 56 | 1012.9 |
| 20260905151147 | 33 | 8 | 4.8 | 11.3 | 0.00 | 0.00 | 0.00 | 56 | 1013.0 |
| 20260905150647 | 33 | 89 | 4.8 | 11.3 | 0.00 | 0.00 | 0.00 | 58 | 1013.0 |
| 20260905150147 | 33 | 293 | 4.8 | 8.0 | 0.00 | 0.00 | 0.00 | 59 | 1013.1 |
| 20260905145647 | 32 | 193 | 4.8 | 9.7 | 0.00 | 0.00 | 0.00 | 58 | 1013.1 |
| 20260905145147 | 32 | 318 | 3.2 | 11.3 | 0.00 | 0.00 | 0.00 | 58 | 1013.2 |
| 20260905144647 | 32 | 20 | 4.8 | 9.7 | 0.00 | 0.00 | 0.00 | 59 | 1013.1 |
| 20260905144147 | 32 | 336 | 3.2 | 8.0 | 0.00 | 0.00 | 0.00 | 59 | 1013.2 |
| 20260905143647 | 32 | 344 | 4.8 | 8.0 | 0.00 | 0.00 | 0.00 | 61 | 1013.1 |
| 20260905143147 | 31 | 315 | 4.8 | 9.7 | 0.00 | 0.00 | 0.00 | 62 | 1013.1 |
| 20260905142647 | 31 | 304 | 4.8 | 11.3 | 0.00 | 0.00 | 0.00 | 62 | 1013.1 |
| 20260905142147 | 31 | 353 | 4.8 | 11.3 | 0.00 | 0.00 | 0.00 | 62 | 1013.1 |
| 20260905141647 | 31 | 27 | 3.2 | 8.0 | 0.00 | 0.00 | 0.00 | 63 | 1013.1 |
| 20260905141147 | 30 | 306 | 3.2 | 9.7 | 0.00 | 0.00 | 0.00 | 65 | 1013.0 |
| 20260905140647 | 30 | 295 | 3.2 | 4.8 | 0.00 | 0.00 | 0.00 | 66 | 1013.0 |
| 20260905140147 | 30 | 269 | 3.2 | 6.4 | 0.00 | 0.00 | 0.00 | 68 | 1013.0 |
| 20260905135647 | 30 | 314 | 3.2 | 6.4 | 0.00 | 0.00 | 0.00 | 68 | 1013.1 |
| 20260905135147 | 30 | 353 | 3.2 | 6.4 | 0.00 | 0.00 | 0.00 | 68 | 1013.1 |
| 20260905134647 | 29 | 223 | 1.6 | 4.8 | 0.00 | 0.00 | 0.00 | 72 | 1013.2 |
| 20260905134147 | 28 | 216 | 1.6 | 3.2 | 0.00 | 0.00 | 0.00 | 73 | 1013.2 |
| 20260905133647 | 28 | 178 | 1.6 | 3.2 | 0.00 | 0.00 | 0.00 | 73 | 1013.2 |
| 20260905133147 | 28 | 89 | 1.6 | 4.8 | 0.00 | 0.00 | 0.00 | 72 | 1013.3 |
| 20260905132647 | 28 | 178 | 1.6 | 4.8 | 0.00 | 0.00 | 0.00 | 74 | 1013.4 |
| 20260905132147 | 27 | 223 | 1.6 | 3.2 | 0.00 | 0.00 | 0.00 | 75 | 1013.3 |
| 20260905131647 | 27 | 223 | 1.6 | 3.2 | 0.00 | 0.00 | 0.00 | 77 | 1013.4 |
| 20260905131147 | 27 | 223 | 1.6 | 3.2 | 0.00 | 0.00 | 0.00 | 79 | 1013.4 |
| 20260905130647 | 27 | 213 | 3.2 | 3.2 | 0.00 | 0.00 | 0.00 | 79 | 1013.4 |
| 20260905130147 | 26 | 156 | 3.2 | 4.8 | 0.00 | 0.00 | 0.00 | 80 | 1013.4 |
| 20260905125647 | 26 | 72 | 3.2 | 4.8 | 0.00 | 0.00 | 0.00 | 81 | 1013.4 |
| 20260905125147 | 26 | 117 | 3.2 | 6.4 | 0.00 | 0.00 | 0.00 | 82 | 1013.4 |
| 20260905124647 | 26 | 102 | 3.2 | 6.4 | 0.00 | 0.00 | 0.00 | 83 | 1013.5 |
| 20260905124147 | 26 | 79 | 3.2 | 4.8 | 0.00 | 0.00 | 0.00 | 84 | 1013.5 |
| 20260905123647 | 25 | 105 | 3.2 | 6.4 | 0.00 | 0.00 | 0.00 | 84 | 1013.5 |
| 20260905123147 | 25 | 89 | 3.2 | 6.4 | 0.00 | 0.00 | 0.00 | 85 | 1013.6 |
| 20260905122647 | 25 | 79 | 3.2 | 6.4 | 0.00 | 0.00 | 0.00 | 85 | 1013.5 |
| 20260905122147 | 25 | 76 | 3.2 | 4.8 | 0.00 | 0.00 | 0.00 | 85 | 1013.5 |
| 20260905121647 | 25 | 68 | 3.2 | 4.8 | 0.00 | 0.00 | 0.00 | 86 | 1013.4 |
| 20260905121147 | 25 | 81 | 3.2 | 6.4 | 0.00 | 0.00 | 0.00 | 86 | 1013.3 |
| 20260905120647 | 25 | 102 | 3.2 | 6.4 | 0.00 | 0.00 | 0.00 | 85 | 1013.3 |
| 20260905120147 | 25 | 105 | 1.6 | 4.8 | 0.00 | 0.00 | 0.00 | 84 | 1013.2 |
| 20260905115647 | 25 | 89 | 1.6 | 3.2 | 0.00 | 0.00 | 0.00 | 85 | 1013.1 |
| 20260905115147 | 25 | 145 | 1.6 | 3.2 | 0.00 | 0.00 | 0.00 | 85 | 1013.0 |
| 20260905114647 | 25 | 178 | 1.6 | 3.2 | 0.00 | 0.00 | 0.00 | 85 | 1013.0 |
| 20260905114147 | 25 | 46 | 1.6 | 1.6 | 0.00 | 0.00 | 0.00 | 85 | 1013.0 |
| 20260905113647 | 25 | 269 | 1.6 | 3.2 | 0.00 | 0.00 | 0.00 | 84 | 1013.0 |
| 20260905113148 | 25 | 46 | 1.6 | 3.2 | 0.00 | 0.00 | 0.00 | 86 | 1012.9 |
| 20260905112648 | 25 | 46 | 0.0 | 1.6 | 0.00 | 0.00 | 0.00 | 86 | 1012.9 |
| 20260905112147 | 24 | 46 | 0.0 | 3.2 | 0.00 | 0.00 | 0.00 | 87 | 1012.8 |
| 20260905111648 | 24 | 1 | 0.0 | 1.6 | 0.00 | 0.00 | 0.00 | 88 | 1012.8 |
| 20260905111148 | 24 | 46 | 1.6 | 3.2 | 0.00 | 0.00 | 0.00 | 88 | 1012.7 |
| 20260905110647 | 24 | 46 | 1.6 | 3.2 | 0.00 | 0.00 | 0.00 | 88 | 1012.7 |
| 20260905110148 | 24 | 269 | 0.0 | 1.6 | 0.00 | 0.00 | 0.00 | 88 | 1012.7 |
| 20260905105648 | 24 | 63 | 0.0 | 1.6 | 0.00 | 0.00 | 0.00 | 88 | 1012.6 |
| 20260905105148 | 24 | 46 | 0.0 | 1.6 | 0.00 | 0.00 | 0.00 | 88 | 1012.5 |